| time (UTC) | temp C | wind direction | speed KPH | gust KPH | rain 1hr cm | rain 24hr cm | rain mn cm | humidity % | barometer mb |
| 20260507052330 | 12 | 67 | 4.8 | 9.7 | 0.00 | 0.00 | 0.00 | 82 | 1022.0 |
| 20260507051828 | 12 | 60 | 8.0 | 11.3 | 0.00 | 0.00 | 0.00 | 82 | 1021.9 |
| 20260507051326 | 12 | 195 | 3.2 | 9.7 | 0.00 | 0.00 | 0.00 | 82 | 1022.0 |
| 20260507050822 | 12 | 50 | 3.2 | 9.7 | 0.00 | 0.00 | 0.00 | 81 | 1022.1 |
| 20260507050319 | 12 | 30 | 4.8 | 9.7 | 0.00 | 0.00 | 0.00 | 81 | 1022.1 |
| 20260507045816 | 12 | 22 | 8.0 | 12.9 | 0.00 | 0.00 | 0.00 | 80 | 1022.2 |
| 20260507045312 | 12 | 90 | 6.4 | 11.3 | 0.00 | 0.00 | 0.00 | 80 | 1022.2 |
| 20260507044809 | 13 | 104 | 3.2 | 9.7 | 0.00 | 0.00 | 0.00 | 80 | 1022.1 |
| 20260507044306 | 13 | 40 | 4.8 | 9.7 | 0.00 | 0.00 | 0.00 | 79 | 1022.1 |
| 20260507043802 | 13 | 47 | 4.8 | 12.9 | 0.00 | 0.00 | 0.00 | 79 | 1022.1 |
| 20260507043259 | 13 | 17 | 6.4 | 12.9 | 0.00 | 0.00 | 0.00 | 78 | 1021.8 |
| 20260507042755 | 13 | 35 | 4.8 | 11.3 | 0.00 | 0.00 | 0.00 | 78 | 1022.0 |
| 20260507042250 | 13 | 72 | 4.8 | 8.0 | 0.00 | 0.00 | 0.00 | 77 | 1021.9 |
| 20260507041748 | 13 | 37 | 6.4 | 14.5 | 0.00 | 0.00 | 0.00 | 77 | 1021.9 |
| 20260507041244 | 13 | 19 | 9.7 | 16.1 | 0.00 | 0.00 | 0.00 | 76 | 1021.9 |
| 20260507040741 | 13 | 30 | 6.4 | 16.1 | 0.00 | 0.00 | 0.00 | 76 | 1021.9 |
| 20260507040237 | 14 | 66 | 8.0 | 11.3 | 0.00 | 0.00 | 0.00 | 76 | 1022.1 |
| 20260507035733 | 14 | 38 | 8.0 | 12.9 | 0.00 | 0.00 | 0.00 | 76 | 1021.7 |
| 20260507035229 | 14 | 123 | 3.2 | 9.7 | 0.00 | 0.00 | 0.00 | 76 | 1021.8 |
| 20260507034727 | 14 | 86 | 6.4 | 11.3 | 0.00 | 0.00 | 0.00 | 75 | 1021.6 |
| 20260507034223 | 14 | 92 | 9.7 | 12.9 | 0.00 | 0.00 | 0.00 | 75 | 1021.8 |
| 20260507033722 | 14 | 98 | 3.2 | 14.5 | 0.00 | 0.00 | 0.00 | 75 | 1021.5 |
| 20260507033219 | 15 | 40 | 3.2 | 20.9 | 0.00 | 0.00 | 0.00 | 74 | 1021.7 |
| 20260507032716 | 15 | 104 | 6.4 | 14.5 | 0.00 | 0.00 | 0.00 | 74 | 1021.5 |
| 20260507032212 | 15 | 57 | 6.4 | 12.9 | 0.00 | 0.00 | 0.00 | 74 | 1021.3 |
| 20260507031709 | 15 | 82 | 1.6 | 8.0 | 0.00 | 0.00 | 0.00 | 73 | 1021.4 |
| 20260507031206 | 15 | 81 | 4.8 | 14.5 | 0.00 | 0.00 | 0.00 | 73 | 1021.3 |
| 20260507030703 | 15 | 47 | 4.8 | 11.3 | 0.00 | 0.00 | 0.00 | 73 | 1021.3 |
| 20260507030200 | 15 | 31 | 4.8 | 14.5 | 0.00 | 0.00 | 0.00 | 73 | 1021.0 |
| 20260507025657 | 16 | 136 | 4.8 | 11.3 | 0.00 | 0.00 | 0.00 | 73 | 1021.1 |
| 20260507025154 | 16 | 13 | 4.8 | 17.7 | 0.00 | 0.00 | 0.00 | 72 | 1021.0 |
| 20260507024652 | 16 | 51 | 4.8 | 11.3 | 0.00 | 0.00 | 0.00 | 73 | 1020.9 |
| 20260507024149 | 16 | 96 | 1.6 | 9.7 | 0.00 | 0.00 | 0.00 | 73 | 1020.8 |
| 20260507023644 | 16 | 97 | 3.2 | 12.9 | 0.00 | 0.00 | 0.00 | 73 | 1021.0 |
| 20260507023142 | 16 | 83 | 4.8 | 8.0 | 0.00 | 0.00 | 0.00 | 73 | 1020.6 |
| 20260507022639 | 16 | 117 | 1.6 | 4.8 | 0.00 | 0.00 | 0.00 | 75 | 1020.5 |
| 20260507022135 | 16 | 103 | 1.6 | 4.8 | 0.00 | 0.00 | 0.00 | 76 | 1020.7 |
| 20260507021631 | 16 | 128 | 1.6 | 9.7 | 0.00 | 0.00 | 0.00 | 76 | 1020.6 |
| 20260507021126 | 17 | 85 | 4.8 | 8.0 | 0.00 | 0.00 | 0.00 | 75 | 1020.6 |
| 20260507020625 | 17 | 78 | 3.2 | 4.8 | 0.00 | 0.00 | 0.00 | 74 | 1020.4 |
| 20260507020121 | 17 | 127 | 4.8 | 8.0 | 0.00 | 0.00 | 0.00 | 72 | 1020.8 |
| 20260507015620 | 18 | 130 | 3.2 | 9.7 | 0.00 | 0.00 | 0.00 | 70 | 1020.8 |
| 20260507015116 | 18 | 128 | 1.6 | 8.0 | 0.00 | 0.00 | 0.00 | 68 | 1020.6 |
| 20260507014613 | 18 | 85 | 6.4 | 9.7 | 0.00 | 0.00 | 0.00 | 68 | 1020.7 |
| 20260507014109 | 18 | 88 | 4.8 | 9.7 | 0.00 | 0.00 | 0.00 | 71 | 1020.6 |
| 20260507013606 | 18 | 46 | 1.6 | 12.9 | 0.00 | 0.00 | 0.00 | 68 | 1020.7 |
| 20260507013103 | 19 | 64 | 3.2 | 4.8 | 0.00 | 0.00 | 0.00 | 66 | 1020.7 |
| 20260507012600 | 19 | 41 | 3.2 | 9.7 | 0.00 | 0.00 | 0.00 | 66 | 1020.5 |
| 20260507012055 | 18 | 146 | 4.8 | 8.0 | 0.00 | 0.00 | 0.00 | 68 | 1020.7 |
| 20260507011554 | 18 | 59 | 4.8 | 9.7 | 0.00 | 0.00 | 0.00 | 68 | 1020.8 |
| 20260507011050 | 19 | 31 | 4.8 | 9.7 | 0.00 | 0.00 | 0.00 | 68 | 1020.7 |
| 20260507010544 | 19 | 63 | 6.4 | 11.3 | 0.00 | 0.00 | 0.00 | 68 | 1020.8 |
| 20260507010041 | 19 | 111 | 1.6 | 3.2 | 0.00 | 0.00 | 0.00 | 70 | 1020.6 |
| 20260507005539 | 19 | 108 | 1.6 | 8.0 | 0.00 | 0.00 | 0.00 | 70 | 1020.6 |
| 20260507005034 | 19 | 30 | 4.8 | 8.0 | 0.00 | 0.00 | 0.00 | 69 | 1020.7 |
| 20260507004532 | 19 | 83 | 4.8 | 8.0 | 0.00 | 0.00 | 0.00 | 72 | 1020.4 |
| 20260507004029 | 20 | 157 | 1.6 | 4.8 | 0.00 | 0.00 | 0.00 | 70 | 1020.5 |
| 20260507003525 | 19 | 8 | 6.4 | 9.7 | 0.00 | 0.00 | 0.00 | 70 | 1020.5 |
| 20260507003020 | 19 | 103 | 4.8 | 8.0 | 0.00 | 0.00 | 0.00 | 72 | 1020.6 |
| 20260507002517 | 19 | 129 | 4.8 | 4.8 | 0.00 | 0.00 | 0.00 | 71 | 1020.4 |
| 20260507002013 | 20 | 72 | 4.8 | 9.7 | 0.00 | 0.00 | 0.00 | 71 | 1020.4 |
| 20260507001509 | 20 | 125 | 3.2 | 4.8 | 0.00 | 0.00 | 0.00 | 70 | 1020.6 |
| 20260507001007 | 20 | 39 | 6.4 | 11.3 | 0.00 | 0.00 | 0.00 | 71 | 1020.3 |
| 20260507000503 | 19 | 48 | 3.2 | 4.8 | 0.00 | 0.00 | 0.00 | 71 | 1020.3 |
| 20260506235958 | 20 | 115 | 4.8 | 11.3 | 0.00 | 0.00 | 0.00 | 72 | 1020.5 |
| 20260506235456 | 19 | 117 | 1.6 | 4.8 | 0.00 | 0.00 | 0.00 | 72 | 1020.5 |
| 20260506234952 | 19 | 121 | 4.8 | 11.3 | 0.00 | 0.00 | 0.00 | 72 | 1020.5 |
| 20260506234449 | 19 | 149 | 1.6 | 4.8 | 0.00 | 0.00 | 0.00 | 73 | 1020.6 |
| 20260506233947 | 19 | 63 | 4.8 | 8.0 | 0.00 | 0.00 | 0.00 | 72 | 1020.6 |
| 20260506233443 | 19 | 101 | 4.8 | 11.3 | 0.00 | 0.00 | 0.00 | 73 | 1020.4 |
| 20260506232940 | 20 | 93 | 8.0 | 12.9 | 0.00 | 0.00 | 0.00 | 71 | 1020.4 |
| 20260506232436 | 20 | 106 | 4.8 | 12.9 | 0.00 | 0.00 | 0.00 | 67 | 1020.4 |
| 20260506231932 | 21 | 50 | 4.8 | 9.7 | 0.00 | 0.00 | 0.00 | 67 | 1020.5 |
| 20260506231429 | 21 | 137 | 1.6 | 8.0 | 0.00 | 0.00 | 0.00 | 67 | 1020.2 |
| 20260506230926 | 21 | 59 | 4.8 | 8.0 | 0.00 | 0.00 | 0.00 | 66 | 1020.4 |
| 20260506230423 | 20 | 87 | 3.2 | 8.0 | 0.00 | 0.00 | 0.00 | 69 | 1020.3 |
| 20260506225919 | 21 | 152 | 0.0 | 4.8 | 0.00 | 0.00 | 0.00 | 66 | 1020.3 |
| 20260506225417 | 20 | 31 | 3.2 | 9.7 | 0.00 | 0.00 | 0.00 | 69 | 1020.4 |
| 20260506224914 | 20 | 55 | 6.4 | 8.0 | 0.00 | 0.00 | 0.00 | 69 | 1020.4 |
| 20260506224411 | 20 | 78 | 6.4 | 9.7 | 0.00 | 0.00 | 0.00 | 69 | 1020.7 |
| 20260506223907 | 20 | 113 | 1.6 | 4.8 | 0.00 | 0.00 | 0.00 | 68 | 1020.6 |
| 20260506223403 | 20 | 83 | 3.2 | 4.8 | 0.00 | 0.00 | 0.00 | 68 | 1020.8 |
| 20260506222900 | 20 | 122 | 3.2 | 3.2 | 0.00 | 0.00 | 0.00 | 66 | 1020.7 |
| 20260506222356 | 20 | 149 | 1.6 | 4.8 | 0.00 | 0.00 | 0.00 | 66 | 1020.6 |
| 20260506221854 | 20 | 96 | 3.2 | 8.0 | 0.00 | 0.00 | 0.00 | 66 | 1020.8 |
| 20260506221351 | 20 | 192 | 4.8 | 8.0 | 0.00 | 0.00 | 0.00 | 65 | 1020.7 |
| 20260506220848 | 20 | 129 | 3.2 | 4.8 | 0.00 | 0.00 | 0.00 | 67 | 1020.9 |
| 20260506220343 | 21 | 134 | 0.0 | 1.6 | 0.00 | 0.00 | 0.00 | 65 | 1020.8 |
| 20260506215840 | 21 | 168 | 1.6 | 3.2 | 0.00 | 0.00 | 0.00 | 65 | 1020.7 |
| 20260506215336 | 21 | 5 | 3.2 | 3.2 | 0.00 | 0.00 | 0.00 | 64 | 1020.6 |
| 20260506214827 | 21 | 157 | 1.6 | 3.2 | 0.00 | 0.00 | 0.00 | 62 | 1020.6 |
| 20260506214323 | 21 | 196 | 4.8 | 9.7 | 0.00 | 0.00 | 0.00 | 61 | 1020.7 |
| 20260506213822 | 22 | 149 | 0.0 | 1.6 | 0.00 | 0.00 | 0.00 | 60 | 1020.7 |
| 20260506213319 | 21 | 182 | 3.2 | 8.0 | 0.00 | 0.00 | 0.00 | 62 | 1020.7 |
| 20260506212816 | 21 | 201 | 3.2 | 8.0 | 0.00 | 0.00 | 0.00 | 63 | 1020.9 |
| 20260506212312 | 21 | 235 | 6.4 | 8.0 | 0.00 | 0.00 | 0.00 | 63 | 1020.7 |
| 20260506211807 | 21 | 152 | 6.4 | 8.0 | 0.00 | 0.00 | 0.00 | 61 | 1020.7 |
| 20260506211303 | 22 | 150 | 3.2 | 4.8 | 0.00 | 0.00 | 0.00 | 62 | 1020.7 |
| 20260506210800 | 20 | 329 | 6.4 | 9.7 | 0.00 | 0.00 | 0.00 | 64 | 1020.6 |
| 20260506210257 | 21 | 187 | 8.0 | 9.7 | 0.00 | 0.00 | 0.00 | 64 | 1020.8 |
| 20260506205754 | 21 | 159 | 0.0 | 3.2 | 0.00 | 0.00 | 0.00 | 66 | 1020.7 |
| 20260506205249 | 20 | 173 | 4.8 | 8.0 | 0.00 | 0.00 | 0.00 | 66 | 1020.9 |
| 20260506204746 | 20 | 162 | 6.4 | 16.1 | 0.00 | 0.00 | 0.00 | 69 | 1020.9 |
| 20260506204244 | 20 | 150 | 1.6 | 4.8 | 0.00 | 0.00 | 0.00 | 68 | 1020.9 |
| 20260506203742 | 19 | 141 | 1.6 | 4.8 | 0.00 | 0.00 | 0.00 | 70 | 1020.9 |
| 20260506203239 | 20 | 181 | 4.8 | 4.8 | 0.00 | 0.00 | 0.00 | 69 | 1021.0 |
| 20260506202736 | 20 | 158 | 0.0 | 1.6 | 0.00 | 0.00 | 0.00 | 68 | 1021.0 |
| 20260506202232 | 20 | 112 | 1.6 | 4.8 | 0.00 | 0.00 | 0.00 | 70 | 1021.1 |
| 20260506201729 | 19 | 124 | 1.6 | 3.2 | 0.00 | 0.00 | 0.00 | 70 | 1020.8 |
| 20260506201226 | 20 | 130 | 0.0 | 4.8 | 0.00 | 0.00 | 0.00 | 68 | 1020.8 |
| 20260506200723 | 20 | 193 | 3.2 | 4.8 | 0.00 | 0.00 | 0.00 | 72 | 1020.8 |
| 20260506200220 | 19 | 174 | 3.2 | 8.0 | 0.00 | 0.00 | 0.00 | 71 | 1021.1 |
| 20260506195716 | 18 | 100 | 4.8 | 4.8 | 0.00 | 0.00 | 0.00 | 71 | 1021.0 |
| 20260506195213 | 19 | 149 | 0.0 | 14.5 | 0.00 | 0.00 | 0.00 | 71 | 1021.1 |
| 20260506194710 | 19 | 163 | 3.2 | 8.0 | 0.00 | 0.00 | 0.00 | 69 | 1021.2 |
| 20260506194207 | 20 | 167 | 1.6 | 4.8 | 0.00 | 0.00 | 0.00 | 68 | 1021.2 |
| 20260506193705 | 20 | 120 | 8.0 | 9.7 | 0.00 | 0.00 | 0.00 | 70 | 1021.3 |
| 20260506193202 | 20 | 170 | 3.2 | 8.0 | 0.00 | 0.00 | 0.00 | 66 | 1021.1 |
| 20260506192658 | 20 | 199 | 1.6 | 3.2 | 0.00 | 0.00 | 0.00 | 69 | 1021.2 |
| 20260506192154 | 19 | 186 | 4.8 | 11.3 | 0.00 | 0.00 | 0.00 | 68 | 1021.2 |
| 20260506191652 | 19 | 181 | 1.6 | 9.7 | 0.00 | 0.00 | 0.00 | 71 | 1021.1 |
| 20260506191148 | 18 | 130 | 4.8 | 4.8 | 0.00 | 0.00 | 0.00 | 72 | 1021.5 |
| 20260506190645 | 19 | 122 | 1.6 | 3.2 | 0.00 | 0.00 | 0.00 | 71 | 1021.4 |
| 20260506190141 | 18 | 200 | 6.4 | 8.0 | 0.00 | 0.00 | 0.00 | 71 | 1021.5 |
| 20260506185639 | 17 | 183 | 3.2 | 4.8 | 0.00 | 0.00 | 0.00 | 74 | 1021.3 |
| 20260506185135 | 17 | 184 | 3.2 | 9.7 | 0.00 | 0.00 | 0.00 | 75 | 1021.3 |
| 20260506184632 | 17 | 172 | 4.8 | 12.9 | 0.00 | 0.00 | 0.00 | 76 | 1021.3 |
| 20260506184130 | 17 | 138 | 1.6 | 8.0 | 0.00 | 0.00 | 0.00 | 76 | 1021.4 |
| 20260506183626 | 17 | 103 | 4.8 | 8.0 | 0.00 | 0.00 | 0.00 | 75 | 1021.2 |
| 20260506183122 | 17 | 139 | 0.0 | 3.2 | 0.00 | 0.00 | 0.00 | 76 | 1021.3 |
| 20260506182620 | 16 | 125 | 1.6 | 4.8 | 0.00 | 0.00 | 0.00 | 77 | 1021.5 |
| 20260506182116 | 17 | 143 | 3.2 | 9.7 | 0.00 | 0.00 | 0.00 | 77 | 1021.3 |
| 20260506181614 | 17 | 167 | 3.2 | 4.8 | 0.00 | 0.00 | 0.00 | 77 | 1021.4 |
| 20260506181111 | 17 | 97 | 4.8 | 11.3 | 0.00 | 0.00 | 0.00 | 78 | 1021.0 |
| 20260506180608 | 16 | 160 | 4.8 | 4.8 | 0.00 | 0.00 | 0.00 | 77 | 1021.0 |
| 20260506180105 | 16 | 127 | 3.2 | 8.0 | 0.00 | 0.00 | 0.00 | 80 | 1021.2 |
| 20260506175601 | 16 | 112 | 3.2 | 8.0 | 0.00 | 0.00 | 0.00 | 78 | 1021.3 |
| 20260506175057 | 16 | 151 | 0.0 | 1.6 | 0.00 | 0.00 | 0.00 | 79 | 1021.2 |
| 20260506174556 | 16 | 151 | 0.0 | 3.2 | 0.00 | 0.00 | 0.00 | 80 | 1021.5 |
| 20260506174052 | 15 | 180 | 4.8 | 4.8 | 0.00 | 0.00 | 0.00 | 80 | 1021.2 |
| 20260506173550 | 16 | 239 | 3.2 | 4.8 | 0.00 | 0.00 | 0.00 | 78 | 1021.5 |
| 20260506173046 | 16 | 160 | 1.6 | 4.8 | 0.00 | 0.00 | 0.00 | 79 | 1021.3 |
| 20260506172544 | 15 | 127 | 0.0 | 1.6 | 0.00 | 0.00 | 0.00 | 81 | 1021.3 |
| 20260506172040 | 15 | 101 | 3.2 | 3.2 | 0.00 | 0.00 | 0.00 | 81 | 1021.1 |
| 20260506171537 | 16 | 113 | 1.6 | 1.6 | 0.00 | 0.00 | 0.00 | 78 | 1021.0 |
| 20260506171034 | 16 | 155 | 1.6 | 3.2 | 0.00 | 0.00 | 0.00 | 79 | 1021.3 |
| 20260506170532 | 15 | 205 | 1.6 | 3.2 | 0.00 | 0.00 | 0.00 | 79 | 1021.2 |
| 20260506170024 | 15 | 181 | 6.4 | 9.7 | 0.00 | 0.00 | 0.00 | 78 | 1021.0 |
| 20260506165522 | 15 | 97 | 1.6 | 8.0 | 0.00 | 0.00 | 0.00 | 80 | 1021.1 |
| 20260506165018 | 15 | 151 | 3.2 | 9.7 | 0.00 | 0.00 | 0.00 | 79 | 1021.1 |
| 20260506164515 | 15 | 134 | 0.0 | 0.0 | 0.00 | 0.00 | 0.00 | 78 | 1021.2 |
| 20260506164012 | 15 | 160 | 0.0 | 4.8 | 0.00 | 0.00 | 0.00 | 80 | 1021.1 |
| 20260506163508 | 15 | 169 | 3.2 | 3.2 | 0.00 | 0.00 | 0.00 | 79 | 1021.2 |
| 20260506163004 | 15 | 176 | 1.6 | 3.2 | 0.00 | 0.00 | 0.00 | 80 | 1021.4 |
| 20260506162500 | 15 | 159 | 0.0 | 3.2 | 0.00 | 0.00 | 0.00 | 79 | 1021.5 |
| 20260506161951 | 15 | 144 | 3.2 | 3.2 | 0.00 | 0.00 | 0.00 | 78 | 1021.4 |
| 20260506161449 | 15 | 186 | 1.6 | 3.2 | 0.00 | 0.00 | 0.00 | 81 | 1021.3 |
| 20260506160947 | 15 | 69 | 1.6 | 3.2 | 0.00 | 0.00 | 0.00 | 81 | 1021.1 |
| 20260506160444 | 14 | 152 | 1.6 | 4.8 | 0.00 | 0.00 | 0.00 | 81 | 1021.1 |
| 20260506155941 | 14 | 145 | 1.6 | 1.6 | 0.00 | 0.00 | 0.00 | 81 | 1021.1 |
| 20260506155438 | 14 | 10 | 4.8 | 9.7 | 0.00 | 0.00 | 0.00 | 81 | 1021.3 |
| 20260506153605 | 14 | 148 | 0.0 | 3.2 | 0.00 | 0.00 | 0.00 | 81 | 1020.6 |
| 20260506153103 | 13 | 148 | 0.0 | 1.6 | 0.00 | 0.00 | 0.00 | 83 | 1021.0 |
| 20260506152559 | 13 | 139 | 1.6 | 3.2 | 0.00 | 0.00 | 0.00 | 83 | 1021.0 |
| 20260506152057 | 13 | 98 | 1.6 | 4.8 | 0.00 | 0.00 | 0.00 | 84 | 1020.5 |
| 20260506151555 | 13 | 64 | 4.8 | 8.0 | 0.00 | 0.00 | 0.00 | 83 | 1020.7 |
| 20260506151052 | 13 | 144 | 0.0 | 3.2 | 0.00 | 0.00 | 0.00 | 85 | 1020.6 |
| 20260506150549 | 13 | 139 | 1.6 | 3.2 | 0.00 | 0.00 | 0.00 | 85 | 1020.6 |
| 20260506150045 | 13 | 46 | 4.8 | 4.8 | 0.00 | 0.00 | 0.00 | 85 | 1021.0 |
| 20260506145542 | 13 | 55 | 0.0 | 1.6 | 0.00 | 0.00 | 0.00 | 85 | 1021.1 |
| 20260506145040 | 13 | 164 | 1.6 | 8.0 | 0.00 | 0.00 | 0.00 | 86 | 1021.3 |
| 20260506144536 | 13 | 80 | 3.2 | 3.2 | 0.00 | 0.00 | 0.00 | 86 | 1021.1 |
| 20260506144034 | 13 | 344 | 3.2 | 4.8 | 0.00 | 0.00 | 0.00 | 86 | 1021.0 |
| 20260506143531 | 13 | 91 | 3.2 | 4.8 | 0.00 | 0.00 | 0.00 | 87 | 1021.0 |
| 20260506143029 | 13 | 121 | 1.6 | 9.7 | 0.00 | 0.00 | 0.00 | 87 | 1021.1 |
| 20260506142527 | 13 | 140 | 1.6 | 4.8 | 0.00 | 0.00 | 0.00 | 87 | 1021.1 |
| 20260506142025 | 13 | 45 | 4.8 | 9.7 | 0.00 | 0.00 | 0.00 | 87 | 1020.9 |
| 20260506141523 | 13 | 328 | 6.4 | 9.7 | 0.00 | 0.00 | 0.00 | 87 | 1020.9 |
| 20260506141021 | 13 | 84 | 1.6 | 4.8 | 0.00 | 0.00 | 0.00 | 87 | 1020.7 |
| 20260506140518 | 13 | 343 | 3.2 | 11.3 | 0.00 | 0.00 | 0.00 | 87 | 1020.5 |
| 20260506140015 | 13 | 334 | 6.4 | 11.3 | 0.00 | 0.00 | 0.00 | 87 | 1020.4 |
| 20260506135512 | 13 | 65 | 1.6 | 8.0 | 0.00 | 0.00 | 0.00 | 87 | 1020.2 |
| 20260506135008 | 13 | 48 | 3.2 | 4.8 | 0.00 | 0.00 | 0.00 | 87 | 1020.1 |
| 20260506134504 | 13 | 53 | 3.2 | 4.8 | 0.00 | 0.00 | 0.00 | 87 | 1020.3 |
| 20260506134000 | 13 | 21 | 4.8 | 8.0 | 0.00 | 0.00 | 0.00 | 87 | 1020.2 |
| 20260506133458 | 13 | 76 | 3.2 | 4.8 | 0.00 | 0.00 | 0.00 | 88 | 1020.2 |
| 20260506132954 | 13 | 145 | 1.6 | 3.2 | 0.00 | 0.00 | 0.00 | 88 | 1020.4 |
| 20260506132451 | 12 | 119 | 1.6 | 3.2 | 0.00 | 0.00 | 0.00 | 89 | 1020.3 |
| 20260506131949 | 12 | 147 | 0.0 | 1.6 | 0.00 | 0.00 | 0.00 | 89 | 1020.3 |
| 20260506131445 | 12 | 93 | 3.2 | 4.8 | 0.00 | 0.00 | 0.00 | 89 | 1020.1 |
| 20260506130942 | 12 | 195 | 1.6 | 4.8 | 0.00 | 0.00 | 0.00 | 89 | 1020.1 |
| 20260506130439 | 12 | 58 | 3.2 | 3.2 | 0.00 | 0.00 | 0.00 | 90 | 1020.1 |
| 20260506125937 | 12 | 136 | 0.0 | 4.8 | 0.00 | 0.00 | 0.00 | 90 | 1020.0 |
| 20260506125435 | 12 | 153 | 1.6 | 1.6 | 0.00 | 0.00 | 0.00 | 90 | 1019.9 |
| 20260506124933 | 12 | 133 | 1.6 | 1.6 | 0.00 | 0.00 | 0.00 | 89 | 1019.8 |
| 20260506124430 | 12 | 185 | 1.6 | 3.2 | 0.00 | 0.00 | 0.00 | 89 | 1019.6 |
| 20260506123928 | 12 | 135 | 1.6 | 3.2 | 0.00 | 0.00 | 0.00 | 89 | 1019.6 |
| 20260506123426 | 12 | 152 | 0.0 | 4.8 | 0.00 | 0.00 | 0.00 | 89 | 1019.8 |
| 20260506122923 | 12 | 148 | 0.0 | 1.6 | 0.00 | 0.00 | 0.00 | 89 | 1019.6 |
| 20260506122419 | 12 | 146 | 0.0 | 1.6 | 0.00 | 0.00 | 0.00 | 89 | 1019.7 |
| 20260506121918 | 12 | 141 | 0.0 | 1.6 | 0.00 | 0.00 | 0.00 | 89 | 1019.4 |
| 20260506121415 | 13 | 140 | 1.6 | 1.6 | 0.00 | 0.00 | 0.00 | 88 | 1019.4 |
| 20260506120912 | 13 | 136 | 0.0 | 1.6 | 0.00 | 0.00 | 0.00 | 88 | 1019.9 |
| 20260506120409 | 13 | 122 | 1.6 | 3.2 | 0.00 | 0.00 | 0.00 | 88 | 1019.4 |
| 20260506115906 | 13 | 36 | 1.6 | 4.8 | 0.00 | 0.00 | 0.00 | 87 | 1019.7 |
| 20260506115404 | 13 | 150 | 1.6 | 3.2 | 0.00 | 0.00 | 0.00 | 87 | 1019.4 |
| 20260506114902 | 13 | 144 | 0.0 | 3.2 | 0.00 | 0.00 | 0.00 | 87 | 1019.6 |
| 20260506114359 | 13 | 94 | 3.2 | 3.2 | 0.00 | 0.00 | 0.00 | 87 | 1019.6 |
| 20260506113858 | 13 | 131 | 0.0 | 4.8 | 0.00 | 0.00 | 0.00 | 87 | 1019.5 |
| 20260506113355 | 13 | 115 | 4.8 | 4.8 | 0.00 | 0.00 | 0.00 | 87 | 1019.6 |
| 20260506112851 | 13 | 142 | 0.0 | 3.2 | 0.00 | 0.00 | 0.00 | 87 | 1019.3 |
| 20260506112349 | 13 | 259 | 4.8 | 8.0 | 0.00 | 0.00 | 0.00 | 87 | 1019.2 |
| 20260506111846 | 13 | 112 | 1.6 | 3.2 | 0.00 | 0.00 | 0.00 | 87 | 1019.4 |
| 20260506111344 | 13 | 152 | 3.2 | 9.7 | 0.00 | 0.00 | 0.00 | 87 | 1019.4 |
| 20260506110842 | 13 | 152 | 1.6 | 3.2 | 0.00 | 0.00 | 0.00 | 87 | 1019.5 |
| 20260506110339 | 13 | 148 | 1.6 | 4.8 | 0.00 | 0.00 | 0.00 | 87 | 1019.3 |
| 20260506105835 | 13 | 19 | 4.8 | 4.8 | 0.00 | 0.00 | 0.00 | 87 | 1019.1 |
| 20260506105332 | 13 | 293 | 3.2 | 4.8 | 0.00 | 0.00 | 0.00 | 88 | 1019.0 |
| 20260506104830 | 13 | 160 | 3.2 | 3.2 | 0.00 | 0.00 | 0.00 | 88 | 1019.1 |
| 20260506104327 | 13 | 113 | 1.6 | 4.8 | 0.00 | 0.00 | 0.00 | 88 | 1018.8 |
| 20260506103824 | 13 | 135 | 0.0 | 4.8 | 0.00 | 0.00 | 0.00 | 88 | 1019.0 |
| 20260506103322 | 13 | 133 | 1.6 | 3.2 | 0.00 | 0.00 | 0.00 | 88 | 1018.9 |
| 20260506102819 | 13 | 31 | 4.8 | 4.8 | 0.00 | 0.00 | 0.00 | 87 | 1018.8 |
| 20260506102317 | 13 | 121 | 0.0 | 3.2 | 0.00 | 0.00 | 0.00 | 87 | 1018.8 |
| 20260506101814 | 13 | 134 | 1.6 | 3.2 | 0.00 | 0.00 | 0.00 | 87 | 1018.8 |
| 20260506101310 | 13 | 119 | 1.6 | 1.6 | 0.00 | 0.00 | 0.00 | 87 | 1018.6 |
| 20260506100808 | 13 | 144 | 0.0 | 3.2 | 0.00 | 0.00 | 0.00 | 87 | 1018.7 |
| 20260506100306 | 13 | 333 | 3.2 | 3.2 | 0.00 | 0.00 | 0.00 | 87 | 1018.6 |
| 20260506095804 | 13 | 117 | 0.0 | 1.6 | 0.00 | 0.00 | 0.00 | 87 | 1018.4 |
| 20260506095301 | 13 | 147 | 0.0 | 0.0 | 0.00 | 0.00 | 0.00 | 87 | 1018.4 |
| 20260506094757 | 13 | 154 | 0.0 | 0.0 | 0.00 | 0.00 | 0.00 | 87 | 1018.5 |
| 20260506094256 | 13 | 133 | 1.6 | 1.6 | 0.00 | 0.00 | 0.00 | 87 | 1018.4 |
| 20260506093754 | 13 | 177 | 1.6 | 3.2 | 0.00 | 0.00 | 0.00 | 87 | 1018.3 |
| 20260506093251 | 13 | 142 | 1.6 | 3.2 | 0.00 | 0.00 | 0.00 | 87 | 1018.5 |
| 20260506092749 | 13 | 139 | 3.2 | 3.2 | 0.00 | 0.00 | 0.00 | 86 | 1018.5 |
| 20260506092246 | 13 | 125 | 0.0 | 3.2 | 0.00 | 0.00 | 0.00 | 86 | 1018.3 |
| 20260506091743 | 13 | 260 | 3.2 | 3.2 | 0.00 | 0.00 | 0.00 | 86 | 1018.3 |
| 20260506091241 | 13 | 127 | 1.6 | 1.6 | 0.00 | 0.00 | 0.00 | 86 | 1018.3 |
| 20260506090739 | 13 | 111 | 1.6 | 4.8 | 0.00 | 0.00 | 0.00 | 86 | 1018.3 |
| 20260506090236 | 13 | 89 | 1.6 | 4.8 | 0.00 | 0.00 | 0.00 | 86 | 1018.2 |
| 20260506085732 | 13 | 127 | 3.2 | 3.2 | 0.00 | 0.00 | 0.00 | 86 | 1018.3 |
| 20260506085228 | 13 | 345 | 6.4 | 8.0 | 0.00 | 0.00 | 0.00 | 86 | 1018.4 |
| 20260506084726 | 13 | 153 | 3.2 | 8.0 | 0.00 | 0.00 | 0.00 | 86 | 1018.2 |
| 20260506084221 | 14 | 196 | 0.0 | 3.2 | 0.00 | 0.00 | 0.00 | 86 | 1018.3 |
| 20260506083719 | 14 | 102 | 1.6 | 4.8 | 0.00 | 0.00 | 0.00 | 85 | 1018.5 |
| 20260506083216 | 14 | 93 | 3.2 | 3.2 | 0.00 | 0.00 | 0.00 | 85 | 1018.3 |
| 20260506082714 | 14 | 165 | 1.6 | 4.8 | 0.00 | 0.00 | 0.00 | 85 | 1018.3 |
| 20260506082209 | 14 | 257 | 3.2 | 3.2 | 0.00 | 0.00 | 0.00 | 85 | 1018.3 |
| 20260506081707 | 14 | 359 | 4.8 | 8.0 | 0.00 | 0.00 | 0.00 | 85 | 1018.3 |
| 20260506081204 | 14 | 106 | 3.2 | 4.8 | 0.00 | 0.00 | 0.00 | 85 | 1018.2 |
| 20260506080702 | 14 | 113 | 1.6 | 1.6 | 0.00 | 0.00 | 0.00 | 85 | 1018.2 |
| 20260506080158 | 14 | 37 | 3.2 | 3.2 | 0.00 | 0.00 | 0.00 | 85 | 1018.2 |
| 20260506073143 | 15 | 138 | 1.6 | 1.6 | 0.00 | 0.00 | 0.00 | 87 | 1017.8 |
| 20260506072639 | 15 | 146 | 0.0 | 1.6 | 0.00 | 0.00 | 0.00 | 87 | 1017.9 |
| 20260506072137 | 15 | 123 | 1.6 | 1.6 | 0.00 | 0.00 | 0.00 | 86 | 1017.9 |
| 20260506071634 | 15 | 147 | 0.0 | 3.2 | 0.00 | 0.00 | 0.00 | 86 | 1018.0 |
| 20260506071132 | 15 | 158 | 1.6 | 1.6 | 0.00 | 0.00 | 0.00 | 86 | 1017.8 |
| 20260506070628 | 15 | 129 | 0.0 | 0.0 | 0.00 | 0.00 | 0.00 | 87 | 1017.8 |
| 20260506070126 | 15 | 146 | 0.0 | 0.0 | 0.00 | 0.00 | 0.00 | 86 | 1017.6 |
| 20260506062103 | 15 | 46 | 1.6 | 1.6 | 0.00 | 0.00 | 0.00 | 85 | 1017.4 |
| 20260506061558 | 15 | 301 | 1.6 | 3.2 | 0.00 | 0.00 | 0.00 | 84 | 1017.4 |
| 20260506061056 | 15 | 145 | 1.6 | 3.2 | 0.00 | 0.00 | 0.00 | 83 | 1017.5 |
| 20260506060555 | 15 | 139 | 0.0 | 1.6 | 0.00 | 0.00 | 0.00 | 83 | 1017.6 |